Regional Weather Roundup
Issued by NWS New Orleans/Baton Rouge, LA

Home | Current Version | Previous Version | Text Only | Print | Product List | Glossary Off
Versions: 1 2 3 4 5 6 7 8 9 10 11 12 13 14 15 16 17 18 19 20 21 22 23 24 25 26 27 28 29 30 31 32 33 34 35 36 37 38 39 40 41 42 43 44 45 46 47 48 49 50

720
ASUS44 KLIX 242301
RWRLIX
NEW ORLEANS REGIONAL WEATHER ROUNDUP
NATIONAL WEATHER SERVICE NEW ORLEANS LA
500 PM CST SAT JAN 24 2015

NOTE: "FAIR" INDICATES FEW OR NO CLOUDS BELOW 12,000 FEET WITH NO
      SIGNIFICANT WEATHER AND/OR OBSTRUCTIONS TO VISIBILITY.
      SKY/WX - SKY CONDITION AND SIGNIFICANT WEATHER.
      TMP - AIR TEMPERATURE.     DP    - DEWPOINT TEMPERATURE.
      RH  - RELATIVE HUMIDITY.   PRES  - PRESSURE.
      HI  - HEAT INDEX.          WCI   - WIND CHILL INDEX.

*  THESE STATIONS ARE NOT NWS OR FAA STATIONS AND ARE NOT UNDER
   NWS QUALITY CONTROL.

LAZ038-040-048-061>063-065>067-069-250000-
SOUTHEAST LOUISIANA

CITY           SKY/WX    TMP DP  RH WIND       PRES   REMARKS
N.O. AUDUBON   NOT AVBL
N.O. INTL ARPT PTCLDY    55  32  41 W8        30.09S
N.O. LAKEFRONT CLEAR     55  36  48 SW7       30.10S
N.O. DOWNTOWN*   N/A     57  30  35 SW3       30.09F
SLIDELL        CLEAR     53  35  50 SW6       30.08R
BATON ROUGE    CLEAR     55  32  41 W10       30.08S
BOOTHVILLE     CLEAR     53  36  52 NW7       30.11S
BELLE CHASSE   PTCLDY    56  29  35 W8        30.09S
BOGALUSA*        N/A     58  30  35 W3        30.08S
GALLIANO*      NOT AVBL
NEW ROADS*     NOT AVBL
GONZALES*      NOT AVBL
HAMMOND*       NOT AVBL
HOUMA*         NOT AVBL
PORT FOURCHON* CLEAR     54  39  58 W7G14     30.15F

$$

MSZ070-080>082-250000-
SOUTHERN MISSISSIPPI

CITY           SKY/WX    TMP DP  RH WIND       PRES   REMARKS
MCCOMB         CLEAR     54  31  41 W8        30.05F
GULFPORT       CLEAR     55  32  41 W6        30.07R
BILOXI         CLEAR     56  38  50 NW6       30.07R
PASCAGOULA     CLEAR     54  31  41 VRB3      30.07R
STENNIS ARPT*  CLEAR     55  27  33 NW5       30.08R

$$

COASTAL OBSERVATIONS
LAKE AND NEARSHORE STATIONS

STATION/POSITION TIME  TEMP    WIND        PRES    WAVE
                       AIR SEA DIR/SP/G            HT/PER
                 (UTC) (F)     (DEG/KT/KT) (MB)    (FT/S)
PASCAGOULA       2200   56     260/  8/ 10 1017.5
WAVELAND YACHT   2200   56     300/  5/  8 1017.3
GRAND ISLE       2200   54 55  260/ 10/ 12 1020.2
SOUTHWEST PASS   2200   60 47  300/ 12/ 15 1020.1
NEW CANAL        2200   55 52  270/  2/  3 1019.3
SHELL BEACH      2200   54 53  290/ 10/ 12 1019.0

OFFSHORE STATIONS

STATION/POSITION TIME  TEMP    WIND        PRES    WAVE
                       AIR SEA DIR/SP/G            HT/PER
                 (UTC) (F)     (DEG/KT/KT) (MB)    (FT/S)
64 S DAUPHIN ISL 2226   54 71  290/ 16/ 19 1019.3    4/ 8

$$




USA.gov is the U.S. government's official web portal to all federal, state and local government web resources and services.